Greenville, ME

5:19 AM EDT on August 17, 2017 (GMT -0400)
Greenville

Weather History for KGNR - November, 2011

Change the Weather History Date:

Wednesday, November 16, 2011

  Actual Average (KMLT) Record (KMLT)
Temperature  
Mean Temperature 44 °F -  
Max Temperature 52 °F 39 °F 64 °F (1927)
Min Temperature 37 °F 25 °F -1 °F (1916)
Degree Days  
Heating Degree Days 20    
Moisture  
Dew Point 37 °F    
Average Humidity 76    
Maximum Humidity 96    
Minimum Humidity 54    
Precipitation  
Precipitation 0.00 in - - ()
Sea Level Pressure  
Sea Level Pressure 29.82 in    
Wind  
Wind Speed 2 mph (SSE)    
Max Wind Speed 9 mph    
Max Gust Speed 16 mph    
Averages and records for this station are not official NWS values.
T = Trace of Precipitation, MM = Missing Value Source: NWS Daily Summary

Daily Weather History Graph

Daily Weather History Graph

Search for Another Location

Airport or City:

Trip Planner

Search our weather history database for the weather conditions in past years. The results will help you decide how hot, cold, wet, or windy it might be!

Date:

Astronomy

Nov. 16, 2011 Rise Set
Actual Time 6:38 AM EST 4:07 PM EST
Civil Twilight 6:06 AM EST 4:39 PM EST
Nautical Twilight 5:30 AM EST 5:15 PM EST
Astronomical Twilight 4:55 AM EST 5:50 PM EST
Moon 9:19 PM EST (11/16) 11:11 AM EST (11/16)
Length of Visible Light 10h 33m
Length of Day
9h 29m
Waning Gibbous, 70% of the Moon is Illuminated
Nov 16
Waning Gibbous
Nov 18
Last Quarter
Nov 25
New
Dec 2
First Quarter
Dec 10
Full

Hourly Weather History & Observations

Time (EST) Temp. Windchill Dew Point Humidity Pressure Visibility Wind Dir Wind Speed Gust Speed Precip Events Conditions
12:56 AM 39.9 °F - 32.0 °F 73% 29.92 in - Calm Calm - N/A   Unknown
1:56 AM 37.0 °F - 30.9 °F 79% 29.92 in - Calm Calm - N/A   Unknown
2:56 AM 37.9 °F - 32.0 °F 79% 29.91 in - Calm Calm - N/A   Unknown
3:56 AM 37.0 °F - 32.0 °F 82% 29.91 in - Calm Calm - N/A   Unknown
4:56 AM 39.0 °F - 32.0 °F 76% 29.92 in - Calm Calm - N/A   Unknown
5:56 AM 37.0 °F - 32.0 °F 82% 29.91 in - Calm Calm - N/A   Unknown
6:56 AM 37.9 °F 35.5 °F 32.0 °F 79% 29.92 in - Variable 3.5 mph - N/A   Unknown
7:56 AM 41.0 °F 39.0 °F 34.0 °F 76% 29.94 in - SE 3.5 mph - N/A   Unknown
8:56 AM 44.1 °F 42.5 °F 35.1 °F 71% 29.94 in - SE 3.5 mph - N/A   Unknown
9:56 AM 46.0 °F 43.9 °F 36.0 °F 68% 29.93 in - Variable 4.6 mph - N/A   Unknown
10:56 AM 48.0 °F - 37.0 °F 66% 29.90 in - Variable 4.6 mph - N/A   Unknown
11:56 AM 50.0 °F - 37.9 °F 63% 29.86 in - Variable 5.8 mph - N/A   Unknown
12:56 PM 52.0 °F - 36.0 °F 54% 29.82 in - South 9.2 mph 16.1 mph N/A   Unknown
1:56 PM 50.0 °F - 37.0 °F 61% 29.80 in - SSE 5.8 mph - N/A   Unknown
2:56 PM 48.9 °F - 37.9 °F 66% 29.80 in - SSE 5.8 mph - N/A   Unknown
3:56 PM 48.0 °F - 37.9 °F 68% 29.76 in - SSE 3.5 mph - N/A   Unknown
4:56 PM 48.0 °F - 37.9 °F 68% 29.75 in - Calm Calm - N/A   Unknown
5:56 PM 46.9 °F - 39.0 °F 74% 29.74 in - SE 3.5 mph - N/A   Unknown
6:56 PM 46.9 °F - 39.0 °F 74% 29.74 in - Calm Calm - N/A   Unknown
7:56 PM 46.0 °F - 42.1 °F 86% 29.70 in - Calm Calm - N/A   Unknown
8:56 PM 46.0 °F 44.8 °F 42.1 °F 86% 29.68 in - Variable 3.5 mph - N/A   Unknown
9:56 PM 45.0 °F - 43.0 °F 93% 29.68 in - Calm Calm - N/A   Unknown
10:56 PM 45.0 °F - 43.0 °F 93% 29.66 in - Calm Calm - N/A   Unknown
11:56 PM 44.1 °F - 43.0 °F 96% 29.65 in - Calm Calm - N/A   Unknown